Weather History for KHGR - April, 2013

Change the Weather History Date:

Wednesday, April 10, 2013

  Actual Average Record
Temperature  
Mean Temperature 76 °F 51 °F  
Max Temperature 89 °F 61 °F 89 °F (2013)
Min Temperature 62 °F 41 °F 21 °F (1997)
Degree Days  
Heating Degree Days 0 14  
Month to date heating degree days 155 160  
Since 1 July heating degree days 4598 4792  
Cooling Degree Days 11 0  
Month to date cooling degree days 20 0  
Year to date cooling degree days 20 1  
Growing Degree Days 26 (Base 50)    
Moisture  
Dew Point 53 °F    
Average Humidity 48    
Maximum Humidity 67    
Minimum Humidity 29    
Precipitation  
Precipitation 0.00 in 0.12 in 0.02 in (2015)
Month to date precipitation T 1.27  
Year to date precipitation 5.81 9.88  
Sea Level Pressure  
Sea Level Pressure 29.90 in    
Wind  
Wind Speed 8 mph (SW)    
Max Wind Speed 18 mph    
Max Gust Speed 24 mph    
Visibility 10 miles    
Events      
T = Trace of Precipitation, MM = Missing Value Source: NWS Daily Summary

Daily Weather History Graph

Daily Weather History Graph

Search for Another Location

Airport or City:

Trip Planner

Search our weather history database for the weather conditions in past years. The results will help you decide how hot, cold, wet, or windy it might be!

Date:

Astronomy

Apr. 10, 2013 Rise Set
Actual Time 6:40 AM EDT 7:44 PM EDT
Civil Twilight 6:13 AM EDT 8:11 PM EDT
Nautical Twilight 5:40 AM EDT 8:44 PM EDT
Astronomical Twilight 5:05 AM EDT 9:19 PM EDT
Moon 6:35 AM EDT (4/10) 8:17 PM EDT (4/10)
Length of Visible Light 13h 58m
Length of Day
13h 03m
New Moon, 0% of the Moon is Illuminated
Apr 10
New Moon
Apr 18
First Quarter
Apr 25
Full
May 2
Last Quarter
May 9
New

Hourly Weather History & Observations

Time (EDT) Temp. Heat Index Dew Point Humidity Pressure Visibility Wind Dir Wind Speed Gust Speed Precip Events Conditions
12:53 AM 66.9 °F - 52.0 °F 59% 29.91 in 10.0 mi South 6.9 mph - N/A   Clear
1:53 AM 66.0 °F - 51.1 °F 59% 29.93 in 10.0 mi SSE 4.6 mph - N/A   Clear
2:53 AM 64.0 °F - 51.1 °F 63% 29.92 in 10.0 mi SSE 5.8 mph - N/A   Clear
3:53 AM 64.9 °F - 51.1 °F 61% 29.94 in 10.0 mi SSE 5.8 mph - N/A   Clear
4:53 AM 63.0 °F - 51.1 °F 65% 29.95 in 10.0 mi South 5.8 mph - N/A   Clear
5:53 AM 64.0 °F - 50.0 °F 60% 29.95 in 10.0 mi South 4.6 mph - N/A   Clear
6:53 AM 66.9 °F - 50.0 °F 54% 29.97 in 10.0 mi South 3.5 mph - N/A   Mostly Cloudy
7:53 AM 68.0 °F - 51.1 °F 55% 29.96 in 10.0 mi South 5.8 mph - N/A   Clear
8:53 AM 72.0 °F - 52.0 °F 49% 29.97 in 10.0 mi South 8.1 mph - N/A   Clear
9:53 AM 75.9 °F - 54.0 °F 46% 29.96 in 10.0 mi SSW 6.9 mph - N/A   Mostly Cloudy
10:53 AM 79.0 °F - 55.0 °F 44% 29.96 in 10.0 mi West 10.4 mph 18.4 mph N/A   Scattered Clouds
11:53 AM 82.0 °F 81.6 °F 55.9 °F 41% 29.94 in 10.0 mi West 15.0 mph - N/A   Mostly Cloudy
12:53 PM 84.0 °F 82.9 °F 55.0 °F 37% 29.91 in 10.0 mi West 10.4 mph 21.9 mph N/A   Scattered Clouds
1:53 PM 84.9 °F 83.2 °F 53.1 °F 33% 29.90 in 10.0 mi West 10.4 mph 20.7 mph N/A   Mostly Cloudy
3:53 PM 88.0 °F 85.7 °F 53.1 °F 30% 29.85 in 10.0 mi West 17.3 mph 20.7 mph N/A   Partly Cloudy
4:53 PM 88.0 °F - 51.1 °F 28% 29.84 in 10.0 mi WSW 9.2 mph - N/A   Clear
5:53 PM 87.1 °F - 52.0 °F 30% 29.80 in 10.0 mi SW 8.1 mph - N/A   Clear
6:53 PM 84.9 °F 83.2 °F 53.1 °F 33% 29.81 in 10.0 mi SW 4.6 mph - N/A   Clear
7:53 PM 80.1 °F 80.1 °F 55.0 °F 42% 29.79 in 10.0 mi South 3.5 mph - N/A   Clear
8:53 PM 82.0 °F 81.2 °F 53.1 °F 37% 29.81 in 10.0 mi SW 3.5 mph - N/A   Scattered Clouds
9:53 PM 79.0 °F - 53.1 °F 40% 29.84 in 10.0 mi North 18.4 mph 29.9 mph N/A   Clear
10:53 PM 71.1 °F - 54.0 °F 55% 29.86 in 10.0 mi North 11.5 mph - N/A   Clear
11:53 PM 70.0 °F - 55.0 °F 59% 29.92 in 10.0 mi NNW 20.7 mph 28.8 mph N/A   Scattered Clouds